Location: Holyhead Bay
(53.3667°N, 4.6667°W)
Time: 18:44:21
(UTC+00:00)

Cosmos 1607 - Pass Details

Date: 24 November 2020
Orbit: 908 x 995 km, 65.0° (Epoch: 16 January)

Event Time Altitude Azimuth Distance (km) Brightness Sun altitude
Rises 17:36:22 0° 236° (WSW) 3,632 8.7 -12.3°
Reaches altitude 10° 17:38:56 10° 240° (WSW) 2,701 7.7 -12.7°
Maximum altitude 17:45:14 63° 321° (NW) 1,088 4.4 -13.6°
Enters shadow 17:50:52 14° 41° (NE) 2,474 5.6 -14.4°
